Погода Форт-Шевченко

Погода Форт-Шевченко : погода сейчас, прогноз погоды и архив. Всё, что Вы хотите узнать о погоде Форт-Шевченко!

Хотите узнать прогноз погоды Форт-Шевченко? Тогда Вам сюда: Погода Форт-Шевченко

Поиск расширенной информации на нашем сайте:

Другие новости

Новости СМИ2

Главная страница сайта

Новости сайта

03.07.2017

Напоминаем, что на нашем специализированном сайте Метеоцентр.Азия вы можете получить высокодетализированные автоматические прогнозы погоды по пунктам России, СНГ и мира в авиационном формате (включающие направление и скорость ветра, видимость, явления погоды, количество и форму облачности, нижнюю и верхнюю границу облачности).


Погода Форт-Шевченко - сегодня

Время (UTC), дата Ветер
(°,м/с) 
Видим.   Явления Облачность Т
(°С)
Тd
(°С)
f(%) Тe
(°С)
Pmin
(гПа)
dP
(гПа)
Po
(мм)
O2
(г/м3)
Тmin Tmax R s Состояние
почвы
12 20.10.17 тихо ()   10 км    3/0 средняя 
[Ac trans]
+14.9 +12.2 84 +19  1017.9  -0.1  766  290           
15 20.10.17 тихо ()   н/о    3/0 средняя 
[Ac trans]
+13.9 +11.1 83 +16  1017.7  -0.2  765  291    +16.2       
18 20.10.17 140 (ЮВ) н/о    8/0 средняя 
[Ac trans]
+14.1 +11.1 82 +17  1018.3  0.7  766  291    +16.2       
21 20.10.17 160 (Ю) н/о    8/0 средняя 
[Ac trans]
+14.3 +11.5 83 +19  1017.9  -0.5  766  291           
00 21.10.17 140 (ЮВ) н/о    6/0 средняя 
[Ac trans]
+15.5 +12.4 82 +21  1017.2  -0.7  765  289           
03 21.10.17 140 (ЮВ) н/о    8/0 средняя 
[Ac trans]
+12.2 +9.4 83 +13  1017.1  765  293           
06 21.10.17 тихо ()   4000 м  дымка  10/10 300 м 
[St]
+12.7 +12.3 97 +17  1017.7  0.5  765  292  +12         
09 21.10.17 250 (З) 10 км    8/0 средняя 
[Ac trans]
+15.7 +12.6 82 +21  1017  -0.7  765  289           
12 21.10.17 270 (З) 10 км    9/0 средняя 
[Ac trans]
+16.6 +12.8 78 +23  1015.8  -1.2  764  288           
15 21.10.17 130 (ЮВ) н/о    10/0 средняя 
[Ac As]
+14.8 +13.3 91 +21  1015.8  764  289    +16.8       
18 21.10.17 200 (Ю) н/о    10/0 средняя 
[Ac As]
+14.8 +11.7 82 +18  1015.7  -0.1  764  290    +16.8       
21 21.10.17 160 (Ю) н/о    8/0 средняя 
[Ac trans]
+13.8 +11.2 84 +16  1015  -0.7  763  291           
00 22.10.17 180 (Ю) 13  н/о    8/0 средняя 
[Ac trans]
+12.8 +10.3 85 +12  1013.9  -1.1  763  292           
03 22.10.17 180 (Ю) 10 км    10/0 средняя 
[Ac As]
+12.9 +10.4 85 +13  1013.4  -0.5  762  291           
06 22.10.17 200 (Ю) 10 км    10/0 средняя 
[Ac As]
+14.7 +12 84 +19  1013.2  -0.2  762  289  +12.4         
09 22.10.17 200 (Ю) 10 км    10/0 средняя 
[Ac As]
+15.1 +12.5 84 +18  1012.2  -1  761  288           
12 22.10.17 240 (ЮЗ) 10 км  слаб. дождь  10/10 300 м 
[Frnb|Ns]
+12.7 +11.2 91 +15  1011.4  -0.8  761  291           
15 22.10.17 160 (Ю) н/о  {дождь}  10/10 300 м 
[Frnb|Ns]
+13.8 +12.3 91 +18  1010.5  -0.9  760  289    +15.3  0.0     
18 22.10.17 150 (ЮВ) н/о    5/5 100 м средняя 
[Ac trans]
+12 +8.8 81 +12  1010.2  -0.3  760  292    +15.3  0.0     
21 22.10.17 140 (ЮВ) н/о    4/0 средняя 
[Ac trans]
+11.3 +8.5 83 +12  1009.8  -0.3  760  292           
00 23.10.17 150 (ЮВ) н/о    ясно средняя 
[Ac trans]
+10.1 +7 81 +10  1009.8  760  294           
03 23.10.17 310 (СЗ) 10 км  слаб. дождь  10/10 300 м 
[Frnb|Ns]
+12.9 +11.8 93 +15  1011.8  1.9  761  291      0.0     
06 23.10.17 350 (С) 10 км  {дождь}  10/10 300 м 
[Frnb|Ns]
+10.8 +8 83 +9  1014.6  2.9  763  294  +9.8    0.0     
09 23.10.17 350 (С) 10 км    10/10 300 м 
[Frnb|Ns]
+8.7 +4.6 75 +7  1017.4  2.8  765  298           
12 23.10.17 360 (С) 10 км    10/10 300 м 
[Frnb|Ns]
+8 +3 71 +6  1020.5  3.1  768  300           
Время (UTC), дата Ветер
(°,м/с) 
Видим.   Явления Облачность Т
(°С)
Тd
(°С)
f(%) Тe
(°С)
Pmin
(гПа)
dP
(гПа)
Po
(мм)
O2
(г/м3)
Тmin Tmax R s Состояние
почвы

Для получения пояснительной информации подведите курсор к названию столбца.

ПОГОДА Форт-Шевченко - архив

Всё, что Вы хотите узнать о погоде Форт-Шевченко - удобно и подробно!

Выберите нужную дату (начиная с 1 января 2015* года) и нажмите кнопку "Найти".
Будут отображены архивные сводки погоды по пункту Форт-Шевченко, начиная с указанной даты.


Отображать данные в формате CSV (для использования в таблицах Excel)


Внимание! Наш архив погоды предназначен исключительно для личного некоммерческого использования в познавательных целях. Если Вам необходимы официальные справки о состоянии погоды (для производственных, юридических, коммерческих и т.п. целей), обращайтесь в органы Росгидромета.

*Примечание: данная дата относится к архиву по метеостанциям СССР (Россия, СНГ, Балтия).
Архив по метеостанциям Зарубежной Европы и Азии (кроме Китая) хранится 10 дней, по другим регионам земного шара (Китай, Африка, Америка, Австралия, Океания) - 1 день.

Форт-Шевченко - район местоположения метеостанции


Название, широта, долгота, высота метеостанции:
Форт-Шевченко 44.6°ш. 50.2°д. -25 м над ур. моря [Казахстан]

Дополнительная информация

В oтличие oт бoльшинства пoгoдных сайтoв мы публикуем пoдрoбную метеoинфoрмацию в детальнoм прoфессиoнальнoм фoрмате.

Характеристики температуры и влажнoсти вoздуха измеряются на высoте 2 м в тени вдали oт зданий и деревьев.
Скoрoсть ветра измеряется на высoте 10 м (на урoвне рoста челoвека скoрoсть ветра ниже в 1.5-2 раза). Если метеoстанция нахoдится в гoрoде или в лесу, тo скoрoсть ветра занижена на 2-4 м/с пo сравнению с oткрытым местoм. Скoрoсть ветра над акватoриями крупных рек и oзёр, а также на вершинах хoлмoв на 2-5 м/с выше, чем в oбычных услoвиях.
Атмoсфернoе давление в разных тoчках местнoсти мoжет значительнo oтличаться oт давления на метеoстанции, в зависимoсти oт услoвий рельефа (при пoдъёме на 10 м давление пoнижается примернo на 1 мм рт.ст.).